When you browse on this site, cookies collect data to enhance your experience and personalize the content and advertising you see.
Visit our Privacy Policy to learn more. By continuing to use the site, you agree to this use of cookies and data.
  • en Suisse
  • Liste des pays
  • À 7 jours
  • Température de l'eau
  • Carte météo
  • Widgets météo
  • user-avatar
    Se connecter

    Météo par heure à Biskra

    Ce jour, 22 Novembre, Vendredi

    Heure Température Précipitation Vent Pression Humidité
    00:00 +14°C° 0 mm 5 m/s 752 mmHg 38%
    01:00 +14°C° 0 mm 4 m/s 751 mmHg 38%
    02:00 +14°C° 0 mm 4 m/s 751 mmHg 39%
    03:00 +14°C° 0 mm 4 m/s 751 mmHg 40%
    04:00 +13°C° 0 mm 4 m/s 751 mmHg 41%
    05:00 +13°C° 0 mm 4 m/s 751 mmHg 41%
    06:00 +13°C° 0 mm 3 m/s 751 mmHg 42%
    07:00 +14°C° 0 mm 4 m/s 751 mmHg 40%
    08:00 +15°C° 0 mm 5 m/s 751 mmHg 37%
    09:00 +15°C° 0 mm 6 m/s 751 mmHg 34%
    10:00 +16°C° 0 mm 6 m/s 751 mmHg 32%
    11:00 +17°C° 0 mm 6 m/s 750 mmHg 29%
    12:00 +19°C° 0 mm 6 m/s 750 mmHg 27%
    13:00 +19°C° 0 mm 6 m/s 749 mmHg 26%
    14:00 +20°C° 0 mm 6 m/s 749 mmHg 25%
    15:00 +20°C° 0 mm 6 m/s 748 mmHg 24%
    16:00 +19°C° 0 mm 6 m/s 748 mmHg 25%
    17:00 +17°C° 0 mm 6 m/s 749 mmHg 27%
    18:00 +16°C° 0 mm 7 m/s 749 mmHg 29%
    19:00 +16°C° 0 mm 7 m/s 749 mmHg 29%
    20:00 +16°C° 0 mm 7 m/s 749 mmHg 30%
    21:00 +16°C° 0 mm 7 m/s 749 mmHg 30%
    22:00 +16°C° 0 mm 7 m/s 749 mmHg 30%
    23:00 +16°C° 0 mm 6 m/s 749 mmHg 29%

    Demain, 23 Novembre, Samedi

    Heure Température Précipitation Vent Pression Humidité
    00:00 +16°C° 0 mm 6 m/s 748 mmHg 29%
    01:00 +15°C° 0 mm 6 m/s 748 mmHg 29%
    02:00 +15°C° 0 mm 6 m/s 747 mmHg 30%
    03:00 +15°C° 0 mm 6 m/s 747 mmHg 30%
    04:00 +15°C° 0 mm 6 m/s 746 mmHg 30%
    05:00 +14°C° 0 mm 6 m/s 746 mmHg 31%
    06:00 +14°C° 0 mm 7 m/s 745 mmHg 31%
    07:00 +14°C° 0.1 mm 7 m/s 745 mmHg 31%
    08:00 +15°C° 0.1 mm 8 m/s 745 mmHg 31%
    09:00 +15°C° 0.1 mm 8 m/s 745 mmHg 31%
    10:00 +12°C° 1.3 mm 8 m/s 745 mmHg 42%
    11:00 +11°C° 1.3 mm 7 m/s 744 mmHg 53%
    12:00 +10°C° 1.3 mm 7 m/s 744 mmHg 65%
    13:00 +10°C° 2.5 mm 6 m/s 744 mmHg 72%
    14:00 +10°C° 2.5 mm 5 m/s 744 mmHg 80%
    15:00 +12°C° 2.5 mm 4 m/s 744 mmHg 88%
    16:00 +12°C° 0.1 mm 3 m/s 744 mmHg 88%
    17:00 +12°C° 0.1 mm 2 m/s 745 mmHg 89%
    18:00 +12°C° 0.1 mm 2 m/s 745 mmHg 89%
    19:00 +12°C° 0 mm 2 m/s 746 mmHg 88%
    20:00 +12°C° 0 mm 1 m/s 746 mmHg 88%
    21:00 +11°C° 0 mm 1 m/s 746 mmHg 87%
    22:00 +11°C° 0 mm 1 m/s 746 mmHg 84%
    23:00 +12°C° 0 mm 2 m/s 746 mmHg 80%

    Après-demain, 24 Novembre, Dimanche

    Heure Température Précipitation Vent Pression Humidité
    00:00 +12°C° 0 mm 2 m/s 746 mmHg 77%
    01:00 +11°C° 0 mm 3 m/s 746 mmHg 74%
    02:00 +11°C° 0 mm 4 m/s 746 mmHg 72%
    03:00 +10°C° 0 mm 5 m/s 747 mmHg 69%
    04:00 +9°C° 0 mm 5 m/s 747 mmHg 69%
    05:00 +9°C° 0 mm 5 m/s 748 mmHg 69%
    06:00 +10°C° 0 mm 4 m/s 748 mmHg 69%
    07:00 +10°C° 0 mm 5 m/s 749 mmHg 64%
    08:00 +11°C° 0 mm 6 m/s 749 mmHg 60%
    09:00 +12°C° 0 mm 7 m/s 749 mmHg 56%
    10:00 +13°C° 0 mm 8 m/s 749 mmHg 52%
    11:00 +15°C° 0 mm 9 m/s 749 mmHg 48%
    12:00 +16°C° 0 mm 10 m/s 749 mmHg 44%
    13:00 +16°C° 0 mm 10 m/s 749 mmHg 44%
    14:00 +16°C° 0 mm 10 m/s 749 mmHg 43%
    15:00 +16°C° 0 mm 10 m/s 749 mmHg 42%
    16:00 +16°C° 0 mm 9 m/s 749 mmHg 45%
    17:00 +15°C° 0 mm 8 m/s 750 mmHg 48%
    18:00 +13°C° 0 mm 8 m/s 750 mmHg 51%
    19:00 +14°C° 0 mm 7 m/s 751 mmHg 53%
    20:00 +12°C° 0 mm 7 m/s 751 mmHg 56%
    21:00 +13°C° 0 mm 6 m/s 752 mmHg 58%
    22:00 +11°C° 0 mm 6 m/s 752 mmHg 60%
    23:00 +11°C° 0 mm 6 m/s 752 mmHg 62%

    25 Novembre, Lundi

    Heure Température Précipitation Vent Pression Humidité
    00:00 +11°C° 0 mm 6 m/s 752 mmHg 64%
    01:00 +10°C° 0 mm 6 m/s 752 mmHg 64%
    02:00 +10°C° 0 mm 6 m/s 752 mmHg 64%
    03:00 +10°C° 0 mm 6 m/s 751 mmHg 65%
    04:00 +10°C° 0 mm 6 m/s 752 mmHg 65%
    05:00 +10°C° 0 mm 6 m/s 752 mmHg 65%
    06:00 +10°C° 0 mm 6 m/s 752 mmHg 65%
    07:00 +11°C° 0 mm 6 m/s 752 mmHg 61%
    08:00 +13°C° 0 mm 6 m/s 753 mmHg 56%
    09:00 +14°C° 0 mm 6 m/s 753 mmHg 51%
    10:00 +15°C° 0 mm 6 m/s 753 mmHg 47%
    11:00 +16°C° 0 mm 6 m/s 753 mmHg 43%
    12:00 +17°C° 0 mm 5 m/s 753 mmHg 40%
    13:00 +19°C° 0 mm 5 m/s 752 mmHg 40%
    14:00 +19°C° 0 mm 5 m/s 752 mmHg 40%
    15:00 +19°C° 0 mm 5 m/s 752 mmHg 40%
    16:00 +17°C° 0 mm 5 m/s 752 mmHg 43%
    17:00 +17°C° 0 mm 4 m/s 753 mmHg 47%
    18:00 +15°C° 0 mm 4 m/s 753 mmHg 51%
    19:00 +14°C° 0 mm 3 m/s 753 mmHg 52%
    20:00 +14°C° 0 mm 3 m/s 754 mmHg 53%
    21:00 +15°C° 0 mm 2 m/s 754 mmHg 54%
    22:00 +14°C° 0 mm 2 m/s 754 mmHg 55%
    23:00 +14°C° 0 mm 1 m/s 754 mmHg 56%

    26 Novembre, Mardi

    Heure Température Précipitation Vent Pression Humidité
    00:00 +13°C° 0 mm 1 m/s 754 mmHg 56%
    01:00 +13°C° 0 mm 1 m/s 754 mmHg 57%
    02:00 +13°C° 0 mm 2 m/s 754 mmHg 58%
    03:00 +13°C° 0 mm 2 m/s 754 mmHg 59%
    04:00 +13°C° 0 mm 2 m/s 754 mmHg 61%
    05:00 +12°C° 0 mm 2 m/s 754 mmHg 62%
    06:00 +12°C° 0 mm 2 m/s 754 mmHg 64%
    07:00 +14°C° 0 mm 1 m/s 754 mmHg 58%
    08:00 +15°C° 0 mm 1 m/s 754 mmHg 53%
    09:00 +16°C° 0 mm 1 m/s 755 mmHg 48%
    10:00 +18°C° 0 mm 1 m/s 754 mmHg 45%
    11:00 +19°C° 0 mm 1 m/s 754 mmHg 42%
    12:00 +19°C° 0 mm 1 m/s 754 mmHg 40%
    13:00 +20°C° 0 mm 1 m/s 753 mmHg 40%
    14:00 +20°C° 0 mm 1 m/s 753 mmHg 40%
    15:00 +20°C° 0 mm 1 m/s 753 mmHg 41%
    16:00 +19°C° 0 mm 1 m/s 753 mmHg 45%
    17:00 +18°C° 0 mm 1 m/s 753 mmHg 49%
    18:00 +15°C° 0 mm 0 m/s 753 mmHg 53%
    19:00 +15°C° 0 mm 0 m/s 754 mmHg 54%
    20:00 +14°C° 0 mm 0 m/s 754 mmHg 55%
    21:00 +14°C° 0 mm 0 m/s 754 mmHg 55%
    22:00 +14°C° 0 mm 0 m/s 754 mmHg 56%
    23:00 +13°C° 0 mm 0 m/s 754 mmHg 57%

    27 Novembre, Mercredi

    Heure Température Précipitation Vent Pression Humidité
    00:00 +13°C° 0 mm 0 m/s 754 mmHg 58%
    01:00 +12°C° 0 mm 0 m/s 754 mmHg 59%
    02:00 +12°C° 0 mm 0 m/s 753 mmHg 59%
    03:00 +12°C° 0 mm 0 m/s 753 mmHg 60%
    04:00 +12°C° 0 mm 0 m/s 753 mmHg 60%
    05:00 +12°C° 0 mm 0 m/s 753 mmHg 61%
    06:00 +11°C° 0 mm 0 m/s 753 mmHg 62%
    07:00 +13°C° 0 mm 0 m/s 753 mmHg 56%
    08:00 +15°C° 0 mm 1 m/s 754 mmHg 50%
    09:00 +18°C° 0 mm 1 m/s 754 mmHg 45%
    10:00 +19°C° 0 mm 1 m/s 754 mmHg 43%
    11:00 +19°C° 0 mm 1 m/s 753 mmHg 42%
    12:00 +20°C° 0 mm 1 m/s 753 mmHg 40%
    13:00 +20°C° 0 mm 1 m/s 752 mmHg 40%
    14:00 +20°C° 0 mm 1 m/s 752 mmHg 39%
    15:00 +21°C° 0 mm 1 m/s 752 mmHg 39%
    16:00 +20°C° 0 mm 1 m/s 752 mmHg 42%
    17:00 +19°C° 0 mm 1 m/s 752 mmHg 46%
    18:00 +18°C° 0 mm 1 m/s 753 mmHg 49%
    19:00 +18°C° 0 mm 1 m/s 753 mmHg 50%
    20:00 +18°C° 0 mm 1 m/s 753 mmHg 51%
    21:00 +18°C° 0 mm 1 m/s 753 mmHg 51%
    22:00 +16°C° 0 mm 1 m/s 753 mmHg 52%
    23:00 +16°C° 0 mm 1 m/s 753 mmHg 52%
    Voir plus